Temperature
5 5 5 5 5 4 4 4 3 3 3 3 3 4 4 4 4 4 4 4 4 4 4 4 4 4 4 4 4 5 5 5 5 5 5 5 5 5
5 5 5 4 4 4 4 3 3 3 2 3 3 3 3 3 3 3 3 3 3 3 3 3 3 3 3 4 4 4 4 4 4 4 4 5 5 5
4 4 4 4 4 3 3 3 3 2 2 2 2 2 2 2 3 3 3 3 3 3 3 3 3 3 3 3 3 3 3 3 3 4 4 4 4 4
4 4 3 3 3 3 3 2 2 2 1 2 2 2 2 2 2 2 2 2 2 2 2 2 2 2 2 2 3 2 3 3 3 3 3 4 4 4
3 3 3 3 3 2 2 2 2 1 1 1 1 1 1 1 1 1 1 1 2 2 2 2 2 2 2 2 2 2 2 2 2 3 3 3 3 3
3 2 2 2 2 2 2 1 1 1 1 1 1 0 0 0 0 0 1 1 1 1 1 1 1 2 2 1 1 1 1 1 2 2 2 2 2 2
2 2 2 2 2 1 1 1 0 0 0 -0 -0 -0 -0 -0 -0 -0 -0 0 1 1 1 1 1 1 1 1 1 1 1 1 1 1 1 1 2 2
2 1 1 1 1 1 1 0 0 -0 -0 -1 -1 -1 -1 -1 -1 -1 -1 -1 -1 -0 -0 0 0 1 1 1 0 0 0 0 0 0 0 1 1 1
1 1 1 1 1 0 0 0 -0 -1 -1 -1 -1 -1 -1 -2 -2 -2 -2 -2 -2 -1 -1 -0 -0 0 0 -0 -0 -0 -0 -0 -0 -0 -0 -0 0 0
1 0 0 0 -0 -0 -0 -0 -1 -1 -1 -1 -1 -1 -2 -2 -2 -2 -2 -2 -2 -2 -2 -2 -1 -1 -0 -0 -0 -1 -1 -1 -1 -1 -1 -1 -0 -0
0 -0 -1 -1 -1 -1 -1 -1 -1 -1 -1 -1 -2 -2 -2 -2 -2 -3 -3 -3 -3 -2 -2 -3 -2 -2 -1 -1 -1 -1 -1 -1 -1 -1 -1 -1 -1 -1
-0 -1 -1 -1 -1 -1 -1 -1 -1 -1 -2 -2 -2 -2 -2 -2 -2 -3 -3 -3 -4 -4 -3 -4 -3 -3 -3 -2 -2 -2 -2 -2 -2 -2 -2 -2 -2 -2
-1 -1 -1 -1 -2 -2 -2 -2 -2 -2 -2 -2 -2 -2 -2 -2 -3 -3 -3 -4 -4 -4 -4 -4 -4 -4 -4 -4 -2 -2 -2 -2 -2 -2 -2 -2 -2 -2
-1 -1 -2 -2 -2 -2 -2 -2 -2 -3 -3 -3 -3 -3 -3 -3 -3 -3 -3 -4 -4 -4 -4 -4 -5 -5 -5 -5 -4 -3 -3 -3 -3 -2 -2 -2 -2 -3
-1 -2 -2 -2 -2 -2 -2 -2 -3 -3 -3 -3 -3 -3 -3 -3 -4 -4 -4 -4 -4 -4 -4 -4 -5 -5 -5 -5 -5 -4 -4 -3 -3 -3 -3 -3 -3 -3
-2 -2 -2 -2 -2 -2 -3 -3 -3 -3 -4 -4 -4 -4 -4 -4 -4 -4 -4 -5 -5 -4 -4 -4 -5 -5 -5 -5 -5 -4 -4 -5 -4 -4 -4 -3 -3 -3
-2 -2 -2 -2 -2 -3 -3 -3 -3 -3 -4 -4 -4 -4 -4 -5 -5 -5 -5 -5 -5 -5 -5 -5 -5 -5 -5 -5 -5 -5 -5 -5 -5 -5 -4 -4 -3 -4
-3 -3 -3 -3 -3 -3 -3 -3 -3 -4 -4 -4 -4 -5 -5 -5 -5 -5 -6 -6 -6 -6 -6 -5 -5 -5 -5 -5 -5 -5 -5 -5 -5 -5 -5 -5 -4 -4
-3 -3 -3 -3 -3 -3 -3 -4 -4 -4 -4 -5 -5 -5 -5 -5 -6 -6 -6 -6 -6 -6 -6 -6 -6 -6 -6 -6 -5 -6 -6 -6 -6 -5 -5 -5 -5 -4
-3 -3 -3 -3 -3 -4 -4 -4 -4 -4 -5 -5 -5 -5 -6 -6 -6 -6 -6 -6 -6 -6 -6 -6 -6 -7 -7 -7 -7 -6 -6 -6 -6 -6 -6 -5 -5 -5
-3 -3 -4 -4 -4 -4 -4 -4 -5 -5 -5 -5 -5 -6 -6 -6 -6 -6 -6 -7 -7 -7 -7 -7 -7 -7 -7 -7 -7 -6 -6 -6 -7 -7 -6 -6 -6 -5
-4 -4 -4 -4 -4 -4 -4 -4 -5 -5 -5 -5 -6 -6 -6 -6 -6 -6 -7 -7 -7 -7 -7 -7 -7 -7 -7 -7 -7 -7 -6 -6 -6 -6 -6 -7 -7 -7
-4 -4 -4 -4 -4 -4 -4 -5 -5 -5 -5 -6 -6 -6 -6 -6 -6 -7 -7 -7 -7 -7 -7 -7 -7 -7 -7 -7 -7 -7 -7 -7 -6 -6 -6 -6 -6 -6
Wind_Speed
2 2 2 2 2 2 2 2 3 5 5 3 2 2 3 4 7 8 9 12 14 14 14 14 15 15 15 15 14 14 14 14 14 14 14 14 14 15
2 2 3 3 2 2 2 2 2 4 5 3 3 4 4 6 9 9 10 14 14 15 14 14 15 15 15 14 14 14 14 14 14 14 14 14 14 15
3 3 4 3 3 3 2 2 3 3 6 6 4 3 4 5 7 8 10 10 12 14 14 14 14 14 14 14 14 14 14 14 14 14 14 14 15 15
4 4 4 4 4 3 3 3 3 4 5 7 6 4 5 5 5 6 8 9 10 13 14 14 13 13 14 14 14 14 14 13 13 13 13 14 15 15
4 4 5 4 5 4 3 4 3 4 4 5 6 4 4 5 5 6 6 6 9 11 13 13 12 13 14 14 13 13 13 13 13 13 14 14 15 15
4 4 4 5 5 5 4 4 4 4 4 4 5 5 5 5 4 5 6 6 7 9 10 10 12 13 13 13 13 12 12 12 13 14 14 14 14 15
4 4 5 6 7 6 5 4 4 4 4 4 5 5 5 4 4 4 6 7 7 5 5 6 7 7 8 11 11 11 12 13 14 14 14 15 14 14
4 4 5 6 7 9 9 8 7 6 5 5 5 6 7 5 4 5 5 6 6 3 5 8 5 6 6 7 10 13 14 13 13 13 14 15 14 14
4 5 5 5 6 5 7 9 9 11 10 7 7 7 6 5 5 6 6 7 8 6 6 8 5 6 6 9 13 14 13 12 13 14 15 14 14 14
5 5 5 5 5 5 4 4 5 6 8 6 6 6 6 5 5 6 7 7 7 6 4 6 5 6 7 8 13 12 11 13 14 14 14 14 13 13
5 5 5 5 8 8 4 4 5 5 8 9 9 9 10 10 8 4 4 5 7 5 2 3 4 6 6 5 7 9 11 13 14 15 15 13 13 13
4 5 8 8 9 8 5 4 6 5 4 5 6 7 7 8 9 5 4 5 5 4 2 2 3 4 4 3 3 6 8 12 14 15 15 14 13 9
4 4 5 9 9 9 7 5 7 5 3 4 4 4 4 3 4 3 3 4 5 6 3 2 3 3 4 5 5 5 5 6 9 10 13 14 13 10
5 4 4 8 9 9 7 7 8 6 3 3 4 4 4 4 3 4 4 5 6 7 7 4 4 4 5 7 6 5 5 6 6 6 7 11 11 11
4 6 7 7 7 6 7 7 5 3 2 3 4 5 4 4 3 3 3 4 6 8 8 7 5 5 5 6 6 6 6 6 5 5 6 6 6 5
5 6 7 7 5 5 5 4 3 3 3 4 4 4 3 3 3 3 3 3 4 5 5 7 6 6 6 7 7 8 7 5 6 7 7 7 6 5
3 2 2 3 3 3 2 2 2 2 3 3 3 3 3 4 3 3 3 3 4 5 5 3 4 5 6 7 7 7 7 7 7 7 7 8 6 5
3 3 4 4 4 4 3 3 3 3 3 3 3 3 4 4 4 3 3 4 5 5 5 4 4 4 3 4 7 7 6 6 6 7 6 7 8 6
4 4 4 4 4 4 3 3 3 3 3 3 4 4 4 4 4 4 4 4 5 5 4 4 3 3 5 6 4 5 4 6 6 6 6 6 7 8
4 4 5 4 4 4 4 3 3 3 3 3 3 4 4 4 4 4 4 4 5 5 4 4 3 4 5 5 5 5 6 6 5 6 7 6 6 9
4 4 4 4 4 4 4 4 3 3 3 3 4 4 4 4 4 4 4 6 5 4 5 5 5 6 4 3 5 5 5 7 8 6 6 6 6 6
5 5 4 4 4 4 4 3 3 3 4 4 4 3 3 3 4 4 4 4 4 5 5 5 4 3 2 4 6 7 7 7 8 10 9 7 5 4
5 4 4 4 4 3 4 4 4 4 4 4 4 3 3 3 4 4 4 4 4 4 4 4 3 3 3 4 5 6 7 7 6 6 6 8 9 10
Wind_Direction
251 257 260 269 260 254 250 237 246 280 285 274 294 295 303 300 303 304 301 304 306 306 307 310 310 310 309 310 307 308 307 307 307 306 305 306 306 305
247 249 259 264 262 248 238 247 244 255 273 284 288 292 305 303 302 303 301 305 305 303 302 306 307 306 306 306 304 305 303 303 304 304 304 305 305 304
251 247 255 254 258 251 246 249 256 257 271 287 293 297 299 297 301 297 300 299 298 301 302 305 306 304 304 304 305 305 304 304 304 304 305 305 304 303
247 243 253 256 255 252 248 251 253 256 260 278 290 292 287 288 293 297 303 305 301 301 303 304 304 305 307 307 305 304 304 304 303 304 304 303 303 303
245 242 248 244 250 247 247 248 255 266 260 268 284 291 290 294 301 301 300 299 303 304 305 303 304 307 308 306 305 305 305 305 305 305 303 304 303 302
249 247 247 238 240 241 248 249 258 263 263 267 275 286 293 295 301 305 310 310 308 306 302 304 306 306 306 306 305 306 307 307 307 307 306 305 304 302
257 253 251 249 246 247 253 249 252 257 262 268 273 286 289 299 301 304 306 309 304 296 309 304 303 300 298 300 301 301 305 306 306 306 307 306 305 303
260 263 260 250 248 254 258 258 253 253 255 260 272 275 283 289 297 300 304 311 306 308 318 303 297 291 287 287 296 303 304 304 306 308 309 308 306 303
255 261 267 259 248 239 254 262 263 262 259 258 259 267 280 286 292 293 294 292 286 293 307 295 295 291 291 298 302 300 302 307 309 308 308 308 306 304
258 258 257 257 247 244 247 255 259 265 267 265 257 266 272 276 273 277 282 290 286 282 285 286 296 296 301 298 298 298 304 310 312 312 310 309 308 305
266 265 260 253 260 255 244 250 265 273 278 275 274 276 283 289 289 292 292 295 296 293 279 273 298 308 298 289 295 305 314 314 313 316 316 313 311 310
266 263 263 264 266 258 238 235 257 268 275 288 284 283 283 285 285 271 267 278 291 291 282 305 305 327 307 287 301 311 312 312 312 313 314 312 313 312
267 264 261 267 267 264 254 239 256 271 264 266 274 275 277 275 276 269 259 254 266 271 277 301 291 292 278 295 301 297 299 308 311 308 308 308 310 310
266 267 266 269 267 265 262 258 265 273 268 270 274 274 274 275 282 280 269 260 256 264 273 276 272 278 285 291 293 300 305 304 304 302 304 308 308 308
267 271 274 275 274 267 262 261 261 255 255 264 269 269 266 267 276 282 280 274 271 270 270 263 261 268 269 275 284 293 307 307 302 306 311 307 300 300
268 271 277 277 275 268 269 264 245 238 249 258 269 273 277 275 272 275 281 289 290 286 272 266 260 261 269 270 273 282 291 292 305 308 307 301 295 287
267 267 263 268 265 257 256 249 240 244 253 258 263 273 277 279 277 276 276 283 279 287 294 295 280 265 261 265 273 275 283 288 292 305 310 307 300 287
260 261 256 253 255 254 251 250 247 248 252 256 258 261 269 272 274 279 273 272 278 282 286 295 310 313 302 275 246 264 277 284 295 301 302 303 301 301
252 255 254 248 252 250 244 243 249 250 247 248 252 258 264 268 267 273 275 276 279 283 285 287 290 293 301 304 288 241 269 294 301 303 300 297 295 300
245 251 253 249 247 247 244 244 249 250 247 250 254 256 257 263 267 268 271 275 280 284 286 284 277 276 275 284 289 288 275 281 294 299 302 302 294 294
250 253 252 250 247 243 244 240 240 242 246 248 251 251 253 257 264 268 269 274 277 277 280 279 275 286 280 281 289 291 289 282 284 285 294 302 304 305
250 253 252 247 245 240 238 236 240 243 240 243 250 251 253 256 261 266 269 269 272 276 278 281 282 285 275 277 288 296 302 308 306 301 293 283 283 290
251 253 254 247 242 240 236 234 236 242 242 243 246 250 252 260 265 266 269 271 275 281 286 290 294 289 282 278 287 295 301 309 314 317 311 312 300 287
Height
1486 1486 1485 1485 1485 1484 1484 1484 1483 1480 1477 1477 1477 1476 1475 1474 1472 1471 1469 1467 1465 1464 1462 1460 1458 1456 1455 1453 1452 1450 1449 1448 1447 1446 1446 1445 1444 1444
1482 1482 1481 1481 1480 1480 1479 1479 1479 1478 1474 1473 1473 1472 1471 1469 1468 1466 1464 1462 1460 1458 1457 1455 1453 1452 1450 1448 1446 1445 1444 1443 1441 1440 1440 1439 1438 1438
1478 1477 1477 1476 1476 1475 1475 1474 1474 1473 1471 1468 1469 1468 1466 1465 1463 1461 1459 1457 1455 1453 1452 1450 1448 1446 1445 1443 1441 1440 1438 1437 1436 1435 1434 1433 1432 1432
1474 1473 1472 1472 1471 1470 1470 1469 1469 1468 1467 1464 1463 1462 1461 1460 1458 1456 1454 1452 1450 1448 1446 1445 1443 1441 1439 1438 1436 1434 1433 1431 1430 1429 1428 1427 1426 1425
1469 1468 1467 1467 1466 1466 1465 1464 1464 1463 1462 1460 1458 1457 1456 1455 1453 1451 1449 1447 1445 1443 1441 1439 1438 1436 1434 1432 1430 1429 1427 1426 1424 1423 1422 1421 1420 1419
1464 1464 1463 1462 1462 1461 1460 1459 1459 1458 1457 1455 1454 1452 1451 1450 1449 1446 1443 1442 1440 1438 1436 1435 1433 1431 1429 1427 1425 1423 1422 1420 1419 1417 1416 1415 1414 1413
1459 1458 1457 1457 1457 1456 1456 1455 1454 1453 1452 1450 1449 1448 1447 1445 1444 1441 1439 1436 1434 1433 1431 1429 1427 1425 1423 1422 1420 1418 1416 1415 1413 1412 1410 1409 1408 1406
1453 1453 1452 1452 1451 1451 1451 1450 1450 1449 1447 1446 1444 1443 1442 1441 1439 1437 1435 1431 1428 1428 1425 1423 1422 1420 1418 1416 1414 1413 1411 1409 1407 1406 1404 1403 1401 1400
1448 1447 1446 1446 1446 1445 1445 1445 1444 1444 1443 1442 1440 1439 1438 1436 1435 1433 1431 1428 1426 1424 1421 1417 1416 1414 1413 1411 1409 1408 1406 1404 1402 1400 1399 1397 1395 1394
1443 1442 1441 1440 1440 1440 1440 1439 1438 1438 1438 1437 1435 1434 1433 1432 1431 1429 1427 1424 1421 1420 1417 1413 1410 1409 1407 1406 1404 1403 1401 1399 1397 1395 1393 1391 1390 1388
1438 1438 1437 1436 1435 1435 1434 1433 1433 1433 1433 1432 1431 1430 1428 1427 1426 1424 1421 1419 1415 1414 1413 1410 1406 1403 1401 1400 1399 1398 1396 1394 1392 1390 1387 1386 1384 1382
1434 1433 1432 1431 1431 1430 1429 1428 1427 1427 1427 1426 1425 1424 1423 1422 1421 1419 1417 1415 1412 1410 1408 1407 1403 1401 1396 1394 1394 1393 1391 1389 1386 1384 1382 1380 1378 1376
1429 1428 1428 1427 1426 1425 1424 1424 1423 1423 1422 1421 1420 1419 1418 1417 1415 1414 1413 1411 1409 1407 1406 1404 1400 1398 1396 1390 1388 1388 1386 1383 1381 1379 1377 1375 1373 1372
1425 1424 1423 1423 1422 1421 1420 1419 1419 1418 1417 1416 1415 1414 1413 1412 1411 1409 1408 1406 1405 1404 1402 1400 1397 1395 1392 1388 1384 1382 1381 1379 1376 1374 1372 1370 1368 1367
1421 1420 1419 1418 1417 1417 1416 1415 1415 1413 1412 1411 1410 1409 1408 1407 1406 1405 1403 1402 1400 1399 1397 1396 1394 1391 1389 1385 1381 1378 1376 1373 1372 1370 1367 1365 1363 1361
1417 1416 1415 1414 1413 1412 1411 1410 1410 1409 1408 1407 1406 1405 1404 1403 1402 1400 1399 1397 1395 1393 1393 1391 1389 1387 1384 1382 1379 1375 1373 1371 1368 1366 1363 1360 1359 1357
1413 1411 1410 1409 1408 1407 1407 1406 1406 1405 1404 1403 1402 1401 1400 1399 1397 1396 1394 1393 1391 1389 1387 1386 1384 1382 1380 1378 1375 1372 1370 1367 1365 1362 1359 1356 1354 1353
1408 1406 1405 1405 1404 1403 1402 1402 1401 1401 1400 1399 1398 1397 1396 1394 1393 1392 1391 1389 1387 1385 1383 1381 1379 1377 1375 1373 1372 1369 1366 1364 1361 1359 1356 1353 1349 1349
1403 1402 1401 1400 1400 1399 1398 1398 1397 1397 1396 1395 1394 1392 1391 1390 1389 1388 1387 1385 1383 1382 1380 1379 1377 1374 1372 1368 1367 1366 1363 1360 1357 1355 1353 1350 1347 1344
1398 1397 1397 1396 1396 1395 1394 1394 1393 1392 1391 1390 1389 1388 1387 1386 1385 1384 1383 1381 1380 1378 1377 1376 1374 1372 1370 1368 1364 1362 1361 1358 1354 1351 1349 1346 1344 1341
1394 1393 1393 1392 1391 1391 1390 1390 1389 1388 1387 1386 1385 1384 1383 1382 1381 1380 1379 1378 1377 1375 1373 1372 1370 1370 1368 1365 1362 1358 1357 1355 1353 1350 1346 1343 1340 1337
1389 1389 1388 1388 1387 1387 1386 1385 1385 1384 1383 1382 1381 1381 1380 1379 1378 1377 1375 1374 1373 1372 1370 1369 1367 1366 1364 1362 1359 1356 1353 1351 1349 1347 1345 1342 1339 1335
1385 1384 1383 1383 1383 1382 1382 1381 1380 1380 1379 1378 1377 1377 1376 1375 1374 1373 1372 1371 1370 1368 1367 1365 1364 1363 1361 1359 1356 1354 1351 1348 1346 1343 1341 1339 1337 1335